Location: Corralito
(10.2667°N, 66.9500°W)
Time: 10:22:54
(UTC+00:00)

GPS 2-15 Rocket1 - Pass Details

Date: 06 December 2023
Orbit: 617 x 666 km, 19.8° (Epoch: 02 March)

Event Time Altitude Azimuth Distance (km) Brightness Sun altitude
Exits shadow 08:56:22 32° 6° (N) 1,070 4.1 -22.8°
Maximum altitude 08:56:30 32° 10° (N) 1,069 4.1 -22.8°
Drops below altitude 10° 09:00:43 10° 74° (ENE) 2,005 6.4 -21.8°
Sets 09:03:18 0° 84° (E) 2,923 7.6 -21.2°
